World > North America > United States > Ohio

East Liberty, Ohio Regional Weather

Lat: 40.33N, Lon: 83.58W
Wx Zone: OHZ044
Feedback

East Liberty, OH Regional Weather

Expires:201910211600;;053759
ASUS41 KCLE 211512
RWRCLE
OHIO REGIONAL WEATHER ROUNDUP
NATIONAL WEATHER SERVICE WILMINGTON, OH
1100 AM EDT MON OCT 21 2019

NOTE: "FAIR" INDICATES FEW OR NO CLOUDS BELOW 12,000 FEET WITH NO
SIGNIFICANT WEATHER AND/OR OBSTRUCTIONS TO VISIBILITY.


OHZ001>008-015>018-024>027-034-035-043-044-211600-
   NORTHWEST OHIO
  
CITY           SKY/WX    TMP DP  RH WIND       PRES   REMARKS
DEFIANCE       CLOUDY    59  54  83 SE10G21   29.82F                  
FINDLAY        CLOUDY    62  56  80 SE21G28   29.84F                  
TOLEDO EXPRESS PTSUNNY   62  54  74 SE5       29.84F                  
TOLEDO EXEC    CLOUDY    62  56  80 SE13      29.86F                  
LIMA           NOT AVBL                                               
$$
 

SKY/WX - Weather  TMP - Temperature  DP - Dew Point  RH - Relative Humidity
WIND - Wind Direction/Speed PRES - Barometric Pressure VSB - Visibility
WCI - Wind Chill Index E13G22 Wind - East Wind 13 mph/Gusts of 22 mph